Weather History for KSUX - October, 2012

Change the Weather History Date:

Wednesday, October 3, 2012

  Actual Average Record
Temperature  
Mean Temperature 62 °F 56 °F  
Max Temperature 82 °F 69 °F 96 °F (1938)
Min Temperature 41 °F 43 °F 28 °F (1987)
Degree Days  
Heating Degree Days 3 10  
Month to date heating degree days 20 28  
Since 1 July heating degree days 163 175  
Cooling Degree Days 0 1  
Month to date cooling degree days 0 3  
Year to date cooling degree days 1249 864  
Growing Degree Days 12 (Base 50)    
Moisture  
Dew Point 34 °F    
Average Humidity 43    
Maximum Humidity 70    
Minimum Humidity 15    
Precipitation  
Precipitation 0.00 in 0.09 in 1.49 in (1891)
Month to date precipitation 0.00 0.28  
Year to date precipitation 19.61 23.78  
Snow  
Snow 0.00 in 0.00 in 0.00 in ()
Month to date snowfall 0.0 0.0  
Since 1 July snowfall 0.0 0.0  
Since 1 September snowfall 0.0 0.0  
Snow Depth 0.00 in    
Sea Level Pressure  
Sea Level Pressure 29.84 in    
Wind  
Wind Speed 14 mph (SSE)    
Max Wind Speed 26 mph    
Max Gust Speed 35 mph    
Visibility 10 miles    
Events      
T = Trace of Precipitation, MM = Missing Value Source: NWS Daily Summary

Daily Weather History Graph

Daily Weather History Graph

Search for Another Location

Airport or City:

Trip Planner

Search our weather history database for the weather conditions in past years. The results will help you decide how hot, cold, wet, or windy it might be!

Date:

Astronomy

Oct. 03, 2012 Rise Set
Actual Time 7:25 AM CDT 7:02 PM CDT
Civil Twilight 6:57 AM CDT 7:30 PM CDT
Nautical Twilight 6:24 AM CDT 8:03 PM CDT
Astronomical Twilight 5:51 AM CDT 8:35 PM CDT
Moon 8:50 PM CDT (10/3) 10:54 AM CDT (10/3)
Length of Visible Light 12h 33m
Length of Day
11h 37m
Waning Gibbous, 88% of the Moon is Illuminated
Oct 3
Waning Gibbous
Oct 8
Last Quarter
Oct 15
New
Oct 21
First Quarter
Oct 29
Full

Hourly Weather History & Observations

Time (CDT) Temp. Windchill Dew Point Humidity Pressure Visibility Wind Dir Wind Speed Gust Speed Precip Events Conditions
12:52 AM 44.1 °F 40.1 °F 28.0 °F 53% 29.87 in 10.0 mi ESE 6.9 mph - N/A   Clear
1:52 AM 44.1 °F 40.1 °F 30.0 °F 58% 29.88 in 10.0 mi ESE 6.9 mph - N/A   Clear
2:52 AM 41.0 °F 36.4 °F 30.0 °F 65% 29.88 in 10.0 mi ESE 6.9 mph - N/A   Clear
3:52 AM 43.0 °F 38.2 °F 30.9 °F 62% 29.87 in 10.0 mi ESE 8.1 mph - N/A   Clear
4:52 AM 43.0 °F 38.2 °F 32.0 °F 65% 29.87 in 10.0 mi ESE 8.1 mph - N/A   Clear
5:52 AM 41.0 °F 35.8 °F 32.0 °F 70% 29.88 in 10.0 mi ESE 8.1 mph - N/A   Clear
6:52 AM 41.0 °F 35.8 °F 32.0 °F 70% 29.89 in 10.0 mi ESE 8.1 mph - N/A   Clear
7:52 AM 43.0 °F 37.2 °F 32.0 °F 65% 29.88 in 10.0 mi ESE 10.4 mph - N/A   Clear
8:52 AM 48.0 °F - 34.0 °F 58% 29.88 in 10.0 mi ESE 10.4 mph - N/A   Clear
9:52 AM 57.9 °F - 35.1 °F 42% 29.86 in 10.0 mi SE 11.5 mph - N/A   Clear
10:52 AM 64.9 °F - 36.0 °F 34% 29.85 in 10.0 mi SE 15.0 mph - N/A   Clear
11:52 AM 71.1 °F - 37.0 °F 29% 29.84 in 10.0 mi SSE 15.0 mph - N/A   Clear
12:52 PM 75.9 °F - 36.0 °F 23% 29.81 in 10.0 mi SSE 16.1 mph 20.7 mph N/A   Clear
1:52 PM 80.1 °F - 33.1 °F 18% 29.77 in 10.0 mi South 20.7 mph 27.6 mph N/A   Clear
2:52 PM 81.0 °F - 34.0 °F 18% 29.75 in 10.0 mi South 20.7 mph 29.9 mph N/A   Clear
3:52 PM 81.0 °F - 30.9 °F 16% 29.73 in 10.0 mi South 18.4 mph 31.1 mph N/A   Clear
4:52 PM 81.0 °F - 28.9 °F 15% 29.73 in 10.0 mi South 24.2 mph 34.5 mph N/A   Clear
5:52 PM 79.0 °F - 30.9 °F 17% 29.76 in 10.0 mi South 20.7 mph 25.3 mph N/A   Clear
6:52 PM 75.0 °F - 32.0 °F 21% 29.77 in 10.0 mi SSE 13.8 mph - N/A   Clear
7:52 PM 71.1 °F - 34.0 °F 26% 29.77 in 10.0 mi SSE 11.5 mph - N/A   Clear
8:52 PM 68.0 °F - 34.0 °F 28% 29.81 in 10.0 mi SSE 9.2 mph - N/A   Clear
9:52 PM 64.4 °F - 35.6 °F 34% 29.85 in 10.0 mi SW 5.8 mph - N/A   Clear
10:17 PM 64.4 °F - 41.0 °F 42% 29.87 in 10.0 mi WNW 17.3 mph 21.9 mph N/A   Clear
10:34 PM 62.6 °F - 39.2 °F 42% 29.88 in 10.0 mi WNW 16.1 mph - N/A   Mostly Cloudy
10:52 PM 60.1 °F - 39.0 °F 46% 29.89 in 10.0 mi WNW 17.3 mph 25.3 mph N/A   Overcast
11:24 PM 57.2 °F - 39.2 °F 51% 29.93 in 10.0 mi WNW 18.4 mph 29.9 mph N/A   Scattered Clouds
11:52 PM 55.0 °F - 39.9 °F 57% 29.94 in 10.0 mi WNW 23.0 mph 34.5 mph N/A   Clear